Location: *
(50.9167°S, 179.4000°W)
Time: 20:39:29
(UTC+00:00)

Meteor 1-28 Rocket - Pass Details

Date: 03 March 2024
Orbit: 479 x 493 km, 97.5° (Epoch: 16 April)

Event Time Altitude Azimuth Distance (km) Brightness Sun altitude
Rises 15:10:45 0° 163° (SSE) 2,623 7.7 -20.7°
Reaches altitude 10° 15:12:54 10° 158° (SSE) 1,727 6.7 -20.4°
Maximum altitude 15:16:33 52° 80° (E) 626 3.8 -20.0°
Enters shadow 15:17:57 32° 20° (NNE) 876 4.1 -19.8°
